Year,Month,Day,Hour,Minute,Value (Times are PST for windspeed in km/hr)
2020,11,17,00,00,1.50
2020,11,17,00,01,1.10
2020,11,17,00,02,0.30
2020,11,17,00,03,0.10
2020,11,17,00,04,0.00
2020,11,17,00,05,0.00
2020,11,17,00,06,2.80
2020,11,17,00,07,4.00
2020,11,17,00,08,3.90
2020,11,17,00,09,2.10
2020,11,17,00,10,1.60
2020,11,17,00,11,0.10
2020,11,17,00,12,0.10
2020,11,17,00,13,0.00
2020,11,17,00,14,0.30
2020,11,17,00,15,0.00
2020,11,17,00,16,0.00
2020,11,17,00,17,0.00
2020,11,17,00,18,0.00
2020,11,17,00,19,0.00
2020,11,17,00,20,0.00
2020,11,17,00,21,0.00
2020,11,17,00,22,0.00
2020,11,17,00,23,0.00
2020,11,17,00,24,0.00
2020,11,17,00,25,0.10
2020,11,17,00,26,0.00
2020,11,17,00,27,0.00
2020,11,17,00,28,0.00
2020,11,17,00,29,0.00
2020,11,17,00,30,0.00
2020,11,17,00,31,0.00
2020,11,17,00,32,0.00
2020,11,17,00,33,0.00
2020,11,17,00,34,0.00
2020,11,17,00,35,0.00
2020,11,17,00,36,0.00
2020,11,17,00,37,0.00
2020,11,17,00,38,0.00
2020,11,17,00,39,0.00
2020,11,17,00,40,3.10
2020,11,17,00,41,2.00
2020,11,17,00,42,1.00
2020,11,17,00,43,1.50
2020,11,17,00,44,0.10
2020,11,17,00,45,0.20
2020,11,17,00,46,0.00
2020,11,17,00,47,0.00
2020,11,17,00,48,0.00
2020,11,17,00,49,0.00
2020,11,17,00,50,0.00
2020,11,17,00,51,0.00
2020,11,17,00,52,0.00
2020,11,17,00,53,0.00
2020,11,17,00,54,0.00
2020,11,17,00,55,0.00
2020,11,17,00,56,0.00
2020,11,17,00,57,0.00
2020,11,17,00,58,0.00
2020,11,17,00,59,2.90
2020,11,17,01,00,2.50
2020,11,17,01,01,2.60
2020,11,17,01,02,1.00
2020,11,17,01,03,0.10
2020,11,17,01,04,0.00
2020,11,17,01,05,0.00
2020,11,17,01,06,0.00
2020,11,17,01,07,0.00
2020,11,17,01,08,2.00
2020,11,17,01,09,2.40
2020,11,17,01,10,2.20
2020,11,17,01,11,0.70
2020,11,17,01,12,0.10
2020,11,17,01,13,0.80
2020,11,17,01,14,0.30
2020,11,17,01,15,0.00
2020,11,17,01,16,0.00
2020,11,17,01,17,0.00
2020,11,17,01,18,0.00
2020,11,17,01,19,0.00
2020,11,17,01,20,0.40
2020,11,17,01,21,0.10
2020,11,17,01,22,0.10
2020,11,17,01,23,1.70
2020,11,17,01,24,1.60
2020,11,17,01,25,0.10
2020,11,17,01,26,0.00
2020,11,17,01,27,0.20
2020,11,17,01,28,0.10
2020,11,17,01,29,0.40
2020,11,17,01,30,0.30
2020,11,17,01,31,0.30
2020,11,17,01,32,0.00
2020,11,17,01,33,0.00
2020,11,17,01,34,1.60
2020,11,17,01,35,0.40
2020,11,17,01,36,0.00
2020,11,17,01,37,0.00
2020,11,17,01,38,0.00
2020,11,17,01,39,0.00
2020,11,17,01,40,0.00
2020,11,17,01,41,0.00
2020,11,17,01,42,0.00
2020,11,17,01,43,0.00
2020,11,17,01,44,0.00
2020,11,17,01,45,0.00
2020,11,17,01,46,0.00
2020,11,17,01,47,0.00
2020,11,17,01,48,0.00
2020,11,17,01,49,0.00
2020,11,17,01,50,0.00
2020,11,17,01,51,0.00
2020,11,17,01,52,0.00
2020,11,17,01,53,0.00
2020,11,17,01,54,0.00
2020,11,17,01,55,0.00
2020,11,17,01,56,0.00
2020,11,17,01,57,0.00
2020,11,17,01,58,0.00
2020,11,17,01,59,0.00
2020,11,17,02,00,0.00
2020,11,17,02,01,0.00
2020,11,17,02,02,0.00
2020,11,17,02,03,0.00
2020,11,17,02,04,0.00
2020,11,17,02,05,0.00
2020,11,17,02,06,0.00
2020,11,17,02,07,0.00
2020,11,17,02,08,2.60
2020,11,17,02,09,4.30
2020,11,17,02,10,1.80
2020,11,17,02,11,1.10
2020,11,17,02,12,0.60
2020,11,17,02,13,0.40
2020,11,17,02,14,0.80
2020,11,17,02,15,0.00
2020,11,17,02,16,0.00
2020,11,17,02,17,0.00
2020,11,17,02,18,0.00
2020,11,17,02,19,0.00
2020,11,17,02,20,0.00
2020,11,17,02,21,0.00
2020,11,17,02,22,0.00
2020,11,17,02,23,0.00
2020,11,17,02,24,0.00
2020,11,17,02,25,0.00
2020,11,17,02,26,0.00
2020,11,17,02,27,0.00
2020,11,17,02,28,0.00
2020,11,17,02,29,0.00
2020,11,17,02,30,0.00
2020,11,17,02,31,0.00
2020,11,17,02,32,0.00
2020,11,17,02,33,0.00
2020,11,17,02,34,0.00
2020,11,17,02,35,0.00
2020,11,17,02,36,0.00
2020,11,17,02,37,0.00
2020,11,17,02,38,0.00
2020,11,17,02,39,0.00
2020,11,17,02,40,0.00
2020,11,17,02,41,0.00
2020,11,17,02,42,0.00
2020,11,17,02,43,0.00
2020,11,17,02,44,1.10
2020,11,17,02,45,5.20
2020,11,17,02,46,0.80
2020,11,17,02,47,0.20
2020,11,17,02,48,0.20
2020,11,17,02,49,0.00
2020,11,17,02,50,0.00
2020,11,17,02,51,0.00
2020,11,17,02,52,0.00
2020,11,17,02,53,0.60
2020,11,17,02,54,0.60
2020,11,17,02,55,0.00
2020,11,17,02,56,0.00
2020,11,17,02,57,0.00
2020,11,17,02,58,0.00
2020,11,17,02,59,0.00
2020,11,17,03,00,0.40
2020,11,17,03,01,0.70
2020,11,17,03,02,0.00
2020,11,17,03,03,0.00
2020,11,17,03,04,1.30
2020,11,17,03,05,4.80
2020,11,17,03,06,6.30
2020,11,17,03,07,3.60
2020,11,17,03,08,0.30
2020,11,17,03,09,0.00
2020,11,17,03,10,1.80
2020,11,17,03,11,3.60
2020,11,17,03,12,0.90
2020,11,17,03,13,0.10
2020,11,17,03,14,3.30
2020,11,17,03,15,1.20
2020,11,17,03,16,0.20
2020,11,17,03,17,0.00
2020,11,17,03,18,0.10
2020,11,17,03,19,0.00
2020,11,17,03,20,0.00
2020,11,17,03,21,0.00
2020,11,17,03,22,2.00
2020,11,17,03,23,0.40
2020,11,17,03,24,0.00
2020,11,17,03,25,2.00
2020,11,17,03,26,2.90
2020,11,17,03,27,1.30
2020,11,17,03,28,3.10
2020,11,17,03,29,1.80
2020,11,17,03,30,0.00
2020,11,17,03,31,0.30
2020,11,17,03,32,2.60
2020,11,17,03,33,2.60
2020,11,17,03,34,0.00
2020,11,17,03,35,0.50
2020,11,17,03,36,1.30
2020,11,17,03,37,1.10
2020,11,17,03,38,1.70
2020,11,17,03,39,1.40
2020,11,17,03,40,0.00
2020,11,17,03,41,0.10
2020,11,17,03,42,0.00
2020,11,17,03,43,0.50
2020,11,17,03,44,0.70
2020,11,17,03,45,4.20
2020,11,17,03,46,1.80
2020,11,17,03,47,0.00
2020,11,17,03,48,0.00
2020,11,17,03,49,0.00
2020,11,17,03,50,0.00
2020,11,17,03,51,0.00
2020,11,17,03,52,0.00
2020,11,17,03,53,1.30
2020,11,17,03,54,0.40
2020,11,17,03,55,0.10
2020,11,17,03,56,0.00
2020,11,17,03,57,0.00
2020,11,17,03,58,0.00
2020,11,17,03,59,0.00
2020,11,17,04,00,0.00
2020,11,17,04,01,2.30
2020,11,17,04,02,1.50
2020,11,17,04,03,0.00
2020,11,17,04,04,0.00
2020,11,17,04,05,0.00
2020,11,17,04,06,0.00
2020,11,17,04,07,0.00
2020,11,17,04,08,0.00
2020,11,17,04,09,0.00
2020,11,17,04,10,0.00
2020,11,17,04,11,0.30
2020,11,17,04,12,1.90
2020,11,17,04,13,0.20
2020,11,17,04,14,0.40
2020,11,17,04,15,3.50
2020,11,17,04,16,3.00
2020,11,17,04,17,0.00
2020,11,17,04,18,0.00
2020,11,17,04,19,0.00
2020,11,17,04,20,0.00
2020,11,17,04,21,0.00
2020,11,17,04,22,0.00
2020,11,17,04,23,0.00
2020,11,17,04,24,0.00
2020,11,17,04,25,0.00
2020,11,17,04,26,2.10
2020,11,17,04,27,2.80
2020,11,17,04,28,0.00
2020,11,17,04,29,1.10
2020,11,17,04,30,0.10
2020,11,17,04,31,2.10
2020,11,17,04,32,2.00
2020,11,17,04,33,1.50
2020,11,17,04,34,0.50
2020,11,17,04,35,0.60
2020,11,17,04,36,0.70
2020,11,17,04,37,0.00
2020,11,17,04,38,0.00
2020,11,17,04,39,0.10
2020,11,17,04,40,0.00
2020,11,17,04,41,0.10
2020,11,17,04,42,2.60
2020,11,17,04,43,2.80
2020,11,17,04,44,8.30
2020,11,17,04,45,6.60
2020,11,17,04,46,0.50
2020,11,17,04,47,5.30
2020,11,17,04,48,1.30
2020,11,17,04,49,0.00
2020,11,17,04,50,0.00
2020,11,17,04,51,0.00
2020,11,17,04,52,0.00
2020,11,17,04,53,0.00
2020,11,17,04,54,2.40
2020,11,17,04,55,2.70
2020,11,17,04,56,0.80
2020,11,17,04,57,1.00
2020,11,17,04,58,0.70
2020,11,17,04,59,0.60
2020,11,17,05,00,1.80
2020,11,17,05,01,3.70
2020,11,17,05,02,3.60
2020,11,17,05,03,0.10
2020,11,17,05,04,0.00
2020,11,17,05,05,0.00
2020,11,17,05,06,0.10
2020,11,17,05,07,1.50
2020,11,17,05,08,1.80
2020,11,17,05,09,0.00
2020,11,17,05,10,0.00
2020,11,17,05,11,0.10
2020,11,17,05,12,0.60
2020,11,17,05,13,0.00
2020,11,17,05,14,0.00
2020,11,17,05,15,0.40
2020,11,17,05,16,5.60
2020,11,17,05,17,4.40
2020,11,17,05,18,3.20
2020,11,17,05,19,0.70
2020,11,17,05,20,3.60
2020,11,17,05,21,3.30
2020,11,17,05,22,0.60
2020,11,17,05,23,1.30
2020,11,17,05,24,2.60
2020,11,17,05,25,2.90
2020,11,17,05,26,2.00
2020,11,17,05,27,0.60
2020,11,17,05,28,1.10
2020,11,17,05,29,5.30
2020,11,17,05,30,5.40
2020,11,17,05,31,4.00
2020,11,17,05,32,8.20
2020,11,17,05,33,1.50
2020,11,17,05,34,2.00
2020,11,17,05,35,3.10
2020,11,17,05,36,5.90
2020,11,17,05,37,2.50
2020,11,17,05,38,0.10
2020,11,17,05,39,0.60
2020,11,17,05,40,2.60
2020,11,17,05,41,1.80
2020,11,17,05,42,3.20
2020,11,17,05,43,2.60
2020,11,17,05,44,3.40
2020,11,17,05,45,0.80
2020,11,17,05,46,2.10
2020,11,17,05,47,7.50
2020,11,17,05,48,7.00
2020,11,17,05,49,6.40
2020,11,17,05,50,7.80
2020,11,17,05,51,6.00
2020,11,17,05,52,1.80
2020,11,17,05,53,0.10
2020,11,17,05,54,0.00
2020,11,17,05,55,1.30
2020,11,17,05,56,1.00
2020,11,17,05,57,8.70
2020,11,17,05,58,10.40
2020,11,17,05,59,28.20
2020,11,17,06,00,6.40
2020,11,17,06,01,15.50
2020,11,17,06,02,34.50
2020,11,17,06,03,16.40
2020,11,17,06,04,4.20
2020,11,17,06,05,6.40
2020,11,17,06,06,2.80
2020,11,17,06,07,3.60
2020,11,17,06,08,4.20
2020,11,17,06,09,1.80
2020,11,17,06,10,6.40
2020,11,17,06,11,3.40
2020,11,17,06,12,6.30
2020,11,17,06,13,7.80
2020,11,17,06,14,12.60
2020,11,17,06,15,12.10
2020,11,17,06,16,3.50
2020,11,17,06,17,6.50
2020,11,17,06,18,2.60
2020,11,17,06,19,6.10
2020,11,17,06,20,8.80
2020,11,17,06,21,20.50
2020,11,17,06,22,20.40
2020,11,17,06,23,12.10
2020,11,17,06,24,5.10
2020,11,17,06,25,10.50
2020,11,17,06,26,12.60
2020,11,17,06,27,7.70
2020,11,17,06,28,7.00
2020,11,17,06,29,6.50
2020,11,17,06,30,7.90
2020,11,17,06,31,8.10
2020,11,17,06,32,8.60
2020,11,17,06,33,5.90
2020,11,17,06,34,6.00
2020,11,17,06,35,2.90
2020,11,17,06,36,3.10
2020,11,17,06,37,3.00
2020,11,17,06,38,2.80
2020,11,17,06,39,0.30
2020,11,17,06,40,0.40
2020,11,17,06,41,0.80
2020,11,17,06,42,1.10
2020,11,17,06,43,3.00
2020,11,17,06,44,6.20
2020,11,17,06,45,3.90
2020,11,17,06,46,0.40
2020,11,17,06,47,2.70
2020,11,17,06,48,2.60
2020,11,17,06,49,4.70
2020,11,17,06,50,5.00
2020,11,17,06,51,3.30
2020,11,17,06,52,5.90
2020,11,17,06,53,4.70
2020,11,17,06,54,1.80
2020,11,17,06,55,1.60
2020,11,17,06,56,0.60
2020,11,17,06,57,0.00
2020,11,17,06,58,0.00
2020,11,17,06,59,0.10
2020,11,17,07,00,3.60
2020,11,17,07,01,2.80
2020,11,17,07,02,2.80
2020,11,17,07,03,1.50
2020,11,17,07,04,1.80
2020,11,17,07,05,1.00
2020,11,17,07,06,2.00
2020,11,17,07,07,3.20
2020,11,17,07,08,3.80
2020,11,17,07,09,3.60
2020,11,17,07,10,5.50
2020,11,17,07,11,2.80
2020,11,17,07,12,0.10
2020,11,17,07,13,0.50
2020,11,17,07,14,0.30
2020,11,17,07,15,2.90
2020,11,17,07,16,4.10
2020,11,17,07,17,1.50
2020,11,17,07,18,0.20
2020,11,17,07,19,1.40
2020,11,17,07,20,1.80
2020,11,17,07,21,2.70
2020,11,17,07,22,5.10
2020,11,17,07,23,3.10
2020,11,17,07,24,3.20
2020,11,17,07,25,4.50
2020,11,17,07,26,2.80
2020,11,17,07,27,3.20
2020,11,17,07,28,1.50
2020,11,17,07,29,0.10
2020,11,17,07,30,0.60
2020,11,17,07,31,0.00
2020,11,17,07,32,0.20
2020,11,17,07,33,2.60
2020,11,17,07,34,4.80
2020,11,17,07,35,2.30
2020,11,17,07,36,1.90
2020,11,17,07,37,0.10
2020,11,17,07,38,0.40
2020,11,17,07,39,0.30
2020,11,17,07,40,0.00
2020,11,17,07,41,0.00
2020,11,17,07,42,0.00
2020,11,17,07,43,0.00
2020,11,17,07,44,0.00
2020,11,17,07,45,0.00
2020,11,17,07,46,0.00
2020,11,17,07,47,0.00
2020,11,17,07,48,0.00
2020,11,17,07,49,0.00
2020,11,17,07,50,0.00
2020,11,17,07,51,0.00
2020,11,17,07,52,0.00
2020,11,17,07,53,0.00
2020,11,17,07,54,0.00
2020,11,17,07,55,0.00
2020,11,17,07,56,3.50
2020,11,17,07,57,3.70
2020,11,17,07,58,5.50
2020,11,17,07,59,1.80
2020,11,17,08,00,3.00
2020,11,17,08,01,2.90
2020,11,17,08,02,1.50
2020,11,17,08,03,1.00
2020,11,17,08,04,0.10
2020,11,17,08,05,2.00
2020,11,17,08,06,1.60
2020,11,17,08,07,4.80
2020,11,17,08,08,4.00
2020,11,17,08,09,1.00
2020,11,17,08,10,1.20
2020,11,17,08,11,2.60
2020,11,17,08,12,0.80
2020,11,17,08,13,0.10
2020,11,17,08,14,0.00
2020,11,17,08,15,0.00
2020,11,17,08,16,0.00
2020,11,17,08,17,0.00
2020,11,17,08,18,0.00
2020,11,17,08,19,0.00
2020,11,17,08,20,0.00
2020,11,17,08,21,0.00
2020,11,17,08,22,0.00
2020,11,17,08,23,0.00
2020,11,17,08,24,0.00
2020,11,17,08,25,0.00
2020,11,17,08,26,0.00
2020,11,17,08,27,0.00
2020,11,17,08,28,0.00
2020,11,17,08,29,0.00
2020,11,17,08,30,0.00
2020,11,17,08,31,0.00
2020,11,17,08,32,0.00
2020,11,17,08,33,0.00
2020,11,17,08,34,5.00
2020,11,17,08,35,7.00
2020,11,17,08,36,6.00
2020,11,17,08,37,3.10
2020,11,17,08,38,1.50
2020,11,17,08,39,1.00
2020,11,17,08,40,0.40
2020,11,17,08,41,0.90
2020,11,17,08,42,0.40
2020,11,17,08,43,0.70
2020,11,17,08,44,1.90
2020,11,17,08,45,4.00
2020,11,17,08,46,3.10
2020,11,17,08,47,6.40
2020,11,17,08,48,5.80
2020,11,17,08,49,3.60
2020,11,17,08,50,1.90
2020,11,17,08,51,0.40
2020,11,17,08,52,0.40
2020,11,17,08,53,0.30
2020,11,17,08,54,0.00
2020,11,17,08,55,0.60
2020,11,17,08,56,3.60
2020,11,17,08,57,5.50
2020,11,17,08,58,2.80
2020,11,17,08,59,1.00
2020,11,17,09,00,3.40
2020,11,17,09,01,0.50
2020,11,17,09,02,0.00
2020,11,17,09,03,0.80
2020,11,17,09,04,0.60
2020,11,17,09,05,0.20
2020,11,17,09,06,0.00
2020,11,17,09,07,0.00
2020,11,17,09,08,0.00
2020,11,17,09,09,0.00
2020,11,17,09,10,0.00
2020,11,17,09,11,4.80
2020,11,17,09,12,3.90
2020,11,17,09,13,2.50
2020,11,17,09,14,4.90
2020,11,17,09,15,3.80
2020,11,17,09,16,2.30
2020,11,17,09,17,3.80
2020,11,17,09,18,4.00
2020,11,17,09,19,2.70
2020,11,17,09,20,1.10
2020,11,17,09,21,1.50
2020,11,17,09,22,0.00
2020,11,17,09,23,0.00
2020,11,17,09,24,0.20
2020,11,17,09,25,4.30
2020,11,17,09,26,5.50
2020,11,17,09,27,6.90
2020,11,17,09,28,6.60
2020,11,17,09,29,5.60
2020,11,17,09,30,8.00
2020,11,17,09,31,3.70
2020,11,17,09,32,1.80
2020,11,17,09,33,0.20
2020,11,17,09,34,0.00
2020,11,17,09,35,0.70
2020,11,17,09,36,0.00
2020,11,17,09,37,0.00
2020,11,17,09,38,2.40
2020,11,17,09,39,5.20
2020,11,17,09,40,3.90
2020,11,17,09,41,1.80
2020,11,17,09,42,1.50
2020,11,17,09,43,2.40
2020,11,17,09,44,2.30
2020,11,17,09,45,3.60
2020,11,17,09,46,0.90
2020,11,17,09,47,3.50
2020,11,17,09,48,2.90
2020,11,17,09,49,1.40
2020,11,17,09,50,2.80
2020,11,17,09,51,10.30
2020,11,17,09,52,14.10
2020,11,17,09,53,5.50
2020,11,17,09,54,8.10
2020,11,17,09,55,12.90
2020,11,17,09,56,11.90
2020,11,17,09,57,12.00
2020,11,17,09,58,19.20
2020,11,17,09,59,21.00
2020,11,17,10,00,18.40
2020,11,17,10,01,16.80
2020,11,17,10,02,26.00
2020,11,17,10,03,25.30
2020,11,17,10,04,14.60
2020,11,17,10,05,20.60
2020,11,17,10,06,25.30
2020,11,17,10,07,24.40
2020,11,17,10,08,18.50
2020,11,17,10,09,14.00
2020,11,17,10,10,32.90
2020,11,17,10,11,22.70
2020,11,17,10,12,19.20
2020,11,17,10,13,19.50
2020,11,17,10,14,19.70
2020,11,17,10,15,19.00
2020,11,17,10,16,21.10
2020,11,17,10,17,13.00
2020,11,17,10,18,15.80
2020,11,17,10,19,11.50
2020,11,17,10,20,14.50
2020,11,17,10,21,16.80
2020,11,17,10,22,14.00
2020,11,17,10,23,15.70
2020,11,17,10,24,26.20
2020,11,17,10,25,13.80
2020,11,17,10,26,18.60
2020,11,17,10,27,22.20
2020,11,17,10,28,13.20
2020,11,17,10,29,15.40
2020,11,17,10,30,27.70
2020,11,17,10,31,21.20
2020,11,17,10,32,35.30
2020,11,17,10,33,24.30
2020,11,17,10,34,35.60
2020,11,17,10,35,18.70
2020,11,17,10,36,21.90
2020,11,17,10,37,22.50
2020,11,17,10,38,23.90
2020,11,17,10,39,18.10
2020,11,17,10,40,17.10
2020,11,17,10,41,17.00
2020,11,17,10,42,20.90
2020,11,17,10,43,25.20
2020,11,17,10,44,26.20
2020,11,17,10,45,22.20
2020,11,17,10,46,16.80
2020,11,17,10,47,16.20
2020,11,17,10,48,23.70
2020,11,17,10,49,17.50
2020,11,17,10,50,14.70
2020,11,17,10,51,23.40
2020,11,17,10,52,26.80
2020,11,17,10,53,17.80
2020,11,17,10,54,15.00
2020,11,17,10,55,8.70
2020,11,17,10,56,8.90
2020,11,17,10,57,10.30
2020,11,17,10,58,14.70
2020,11,17,10,59,18.10
2020,11,17,11,00,11.20
2020,11,17,11,01,15.50
2020,11,17,11,02,6.60
2020,11,17,11,03,2.80
2020,11,17,11,04,8.80
2020,11,17,11,05,11.50
2020,11,17,11,06,10.20
2020,11,17,11,07,10.50
2020,11,17,11,08,4.30
2020,11,17,11,09,4.50
2020,11,17,11,10,5.70
2020,11,17,11,11,8.60
2020,11,17,11,12,5.60
2020,11,17,11,13,9.90
2020,11,17,11,14,9.30
2020,11,17,11,15,6.90
2020,11,17,11,16,8.30
2020,11,17,11,17,8.30
2020,11,17,11,18,8.10
2020,11,17,11,19,8.70
2020,11,17,11,20,5.70
2020,11,17,11,21,4.00
2020,11,17,11,22,8.00
2020,11,17,11,23,10.20
2020,11,17,11,24,3.10
2020,11,17,11,25,8.10
2020,11,17,11,26,3.10
2020,11,17,11,27,4.20
2020,11,17,11,28,4.30
2020,11,17,11,29,8.30
2020,11,17,11,30,11.20
2020,11,17,11,31,5.20
2020,11,17,11,32,6.40
2020,11,17,11,33,6.00
2020,11,17,11,34,4.50
2020,11,17,11,35,6.50
2020,11,17,11,36,5.20
2020,11,17,11,37,6.10
2020,11,17,11,38,3.10
2020,11,17,11,39,8.50
2020,11,17,11,40,9.40
2020,11,17,11,41,10.90
2020,11,17,11,42,21.10
2020,11,17,11,43,11.00
2020,11,17,11,44,9.10
2020,11,17,11,45,7.80
2020,11,17,11,46,2.40
2020,11,17,11,47,7.80
2020,11,17,11,48,3.10
2020,11,17,11,49,3.30
2020,11,17,11,50,4.70
2020,11,17,11,51,6.40
2020,11,17,11,52,2.30
2020,11,17,11,53,2.80
2020,11,17,11,54,4.90
2020,11,17,11,55,2.70
2020,11,17,11,56,4.80
2020,11,17,11,57,6.00
2020,11,17,11,58,5.10
2020,11,17,11,59,5.50
2020,11,17,12,00,8.90
2020,11,17,12,01,7.00
2020,11,17,12,02,4.80
2020,11,17,12,03,3.90
2020,11,17,12,04,1.80
2020,11,17,12,05,4.60
2020,11,17,12,06,9.40
2020,11,17,12,07,10.80
2020,11,17,12,08,7.40
2020,11,17,12,09,7.50
2020,11,17,12,10,3.00
2020,11,17,12,11,6.40
2020,11,17,12,12,8.50
2020,11,17,12,13,7.20
2020,11,17,12,14,5.80
2020,11,17,12,15,14.00
2020,11,17,12,16,14.10
2020,11,17,12,17,7.20
2020,11,17,12,18,8.00
2020,11,17,12,19,4.40
2020,11,17,12,20,7.00
2020,11,17,12,21,4.70
2020,11,17,12,22,6.60
2020,11,17,12,23,9.70
2020,11,17,12,24,7.00
2020,11,17,12,25,5.70
2020,11,17,12,26,6.90
2020,11,17,12,27,12.40
2020,11,17,12,28,11.00
2020,11,17,12,29,6.90
2020,11,17,12,30,6.40
2020,11,17,12,31,4.50
2020,11,17,12,32,4.80
2020,11,17,12,33,5.80
2020,11,17,12,34,4.30
2020,11,17,12,35,3.60
2020,11,17,12,36,3.30
2020,11,17,12,37,7.90
2020,11,17,12,38,5.10
2020,11,17,12,39,3.70
2020,11,17,12,40,2.60
2020,11,17,12,41,4.10
2020,11,17,12,42,3.40
2020,11,17,12,43,2.30
2020,11,17,12,44,1.60
2020,11,17,12,45,4.50
2020,11,17,12,46,4.00
2020,11,17,12,47,3.70
2020,11,17,12,48,2.70
2020,11,17,12,49,4.70
2020,11,17,12,50,6.50
2020,11,17,12,51,5.60
2020,11,17,12,52,4.00
2020,11,17,12,53,6.10
2020,11,17,12,54,8.60
2020,11,17,12,55,7.10
2020,11,17,12,56,4.00
2020,11,17,12,57,2.10
2020,11,17,12,58,2.90
2020,11,17,12,59,3.90
2020,11,17,13,00,0.90
2020,11,17,13,01,2.60
2020,11,17,13,02,4.50
2020,11,17,13,03,8.20
2020,11,17,13,04,1.50
2020,11,17,13,05,1.90
2020,11,17,13,06,6.50
2020,11,17,13,07,4.30
2020,11,17,13,08,2.90
2020,11,17,13,09,1.90
2020,11,17,13,10,4.10
2020,11,17,13,11,0.80
2020,11,17,13,12,3.70
2020,11,17,13,13,2.80
2020,11,17,13,14,1.50
2020,11,17,13,15,3.70
2020,11,17,13,16,6.40
2020,11,17,13,17,2.20
2020,11,17,13,18,2.90
2020,11,17,13,19,4.70
2020,11,17,13,20,2.40
2020,11,17,13,21,6.90
2020,11,17,13,22,5.00
2020,11,17,13,23,3.90
2020,11,17,13,24,3.60
2020,11,17,13,25,1.00
2020,11,17,13,26,0.10
2020,11,17,13,27,2.00
2020,11,17,13,28,2.60
2020,11,17,13,29,2.90
2020,11,17,13,30,5.10
2020,11,17,13,31,2.50
2020,11,17,13,32,1.50
2020,11,17,13,33,1.60
2020,11,17,13,34,3.40
2020,11,17,13,35,2.60
2020,11,17,13,36,2.90
2020,11,17,13,37,2.30
2020,11,17,13,38,1.70
2020,11,17,13,39,3.20
2020,11,17,13,40,1.90
2020,11,17,13,41,8.30
2020,11,17,13,42,7.30
2020,11,17,13,43,4.50
2020,11,17,13,44,4.90
2020,11,17,13,45,6.40
2020,11,17,13,46,3.00
2020,11,17,13,47,3.90
2020,11,17,13,48,1.40
2020,11,17,13,49,0.90
2020,11,17,13,50,7.10
2020,11,17,13,51,7.00
2020,11,17,13,52,11.80
2020,11,17,13,53,6.00
2020,11,17,13,54,4.20
2020,11,17,13,55,4.80
2020,11,17,13,56,1.20
2020,11,17,13,57,2.90
2020,11,17,13,58,2.90
2020,11,17,13,59,3.70
2020,11,17,14,00,2.10
2020,11,17,14,01,3.40
2020,11,17,14,02,3.40
2020,11,17,14,03,2.00
2020,11,17,14,04,5.50
2020,11,17,14,05,3.70
2020,11,17,14,06,2.20
2020,11,17,14,07,8.00
2020,11,17,14,08,3.60
2020,11,17,14,09,6.60
2020,11,17,14,10,5.00
2020,11,17,14,11,3.60
2020,11,17,14,12,3.10
2020,11,17,14,13,2.80
2020,11,17,14,14,1.90
2020,11,17,14,15,2.40
2020,11,17,14,16,0.10
2020,11,17,14,17,1.20
2020,11,17,14,18,1.00
2020,11,17,14,19,3.00
2020,11,17,14,20,2.50
2020,11,17,14,21,1.50
2020,11,17,14,22,0.20
2020,11,17,14,23,3.80
2020,11,17,14,24,4.20
2020,11,17,14,25,3.30
2020,11,17,14,26,1.30
2020,11,17,14,27,4.10
2020,11,17,14,28,4.30
2020,11,17,14,29,2.30
2020,11,17,14,30,3.90
2020,11,17,14,31,3.40
2020,11,17,14,32,0.80
2020,11,17,14,33,3.10
2020,11,17,14,34,3.50
2020,11,17,14,35,3.90
2020,11,17,14,36,3.70
2020,11,17,14,37,1.30
2020,11,17,14,38,0.70
2020,11,17,14,39,4.70
2020,11,17,14,40,1.20
2020,11,17,14,41,2.40
2020,11,17,14,42,2.30
2020,11,17,14,43,2.40
2020,11,17,14,44,3.80
2020,11,17,14,45,3.70
2020,11,17,14,46,1.70
2020,11,17,14,47,1.50
2020,11,17,14,48,0.40
2020,11,17,14,49,1.50
2020,11,17,14,50,1.20
2020,11,17,14,51,1.50
2020,11,17,14,52,1.50
2020,11,17,14,53,2.90
2020,11,17,14,54,7.40
2020,11,17,14,55,1.30
2020,11,17,14,56,3.30
2020,11,17,14,57,2.10
2020,11,17,14,58,3.40
2020,11,17,14,59,5.20
2020,11,17,15,00,5.60
2020,11,17,15,01,2.90
2020,11,17,15,02,1.10
2020,11,17,15,03,1.80
2020,11,17,15,04,2.60
2020,11,17,15,05,5.60
2020,11,17,15,06,7.60
2020,11,17,15,07,4.60
2020,11,17,15,08,5.90
2020,11,17,15,09,5.30
2020,11,17,15,10,4.30
2020,11,17,15,11,6.90
2020,11,17,15,12,7.00
2020,11,17,15,13,4.40
2020,11,17,15,14,7.70
2020,11,17,15,15,5.30
2020,11,17,15,16,3.70
2020,11,17,15,17,4.60
2020,11,17,15,18,1.10
2020,11,17,15,19,1.80
2020,11,17,15,20,6.00
2020,11,17,15,21,3.40
2020,11,17,15,22,3.30
2020,11,17,15,23,1.80
2020,11,17,15,24,0.70
2020,11,17,15,25,0.90
2020,11,17,15,26,0.90
2020,11,17,15,27,2.10
2020,11,17,15,28,0.50
2020,11,17,15,29,0.00
2020,11,17,15,30,1.20
2020,11,17,15,31,1.60
2020,11,17,15,32,2.00
2020,11,17,15,33,1.00
2020,11,17,15,34,1.90
2020,11,17,15,35,1.00
2020,11,17,15,36,0.30
2020,11,17,15,37,1.00
2020,11,17,15,38,0.50
2020,11,17,15,39,0.60
2020,11,17,15,40,0.80
2020,11,17,15,41,0.00
2020,11,17,15,42,0.00
2020,11,17,15,43,1.80
2020,11,17,15,44,4.20
2020,11,17,15,45,2.40
2020,11,17,15,46,1.80
2020,11,17,15,47,1.80
2020,11,17,15,48,1.30
2020,11,17,15,49,0.80
2020,11,17,15,50,0.70
2020,11,17,15,51,0.80
2020,11,17,15,52,1.80
2020,11,17,15,53,1.50
2020,11,17,15,54,1.50
2020,11,17,15,55,2.40
2020,11,17,15,56,1.70
2020,11,17,15,57,1.80
2020,11,17,15,58,0.40
2020,11,17,15,59,0.00
2020,11,17,16,00,0.00
2020,11,17,16,01,0.00
2020,11,17,16,02,0.00
2020,11,17,16,03,0.00
2020,11,17,16,04,0.00
2020,11,17,16,05,0.00
2020,11,17,16,06,0.00
2020,11,17,16,07,0.00
2020,11,17,16,08,0.00
2020,11,17,16,09,0.00
2020,11,17,16,10,0.00
2020,11,17,16,11,0.00
2020,11,17,16,12,0.00
2020,11,17,16,13,0.00
2020,11,17,16,14,0.00
2020,11,17,16,15,0.00
2020,11,17,16,16,0.00
2020,11,17,16,17,0.00
2020,11,17,16,18,0.00
2020,11,17,16,19,0.40
2020,11,17,16,20,0.40
2020,11,17,16,21,0.00
2020,11,17,16,22,0.70
2020,11,17,16,23,1.70
2020,11,17,16,24,1.60
2020,11,17,16,25,2.60
2020,11,17,16,26,1.10
2020,11,17,16,27,1.30
2020,11,17,16,28,1.70
2020,11,17,16,29,4.10
2020,11,17,16,30,3.50
2020,11,17,16,31,2.40
2020,11,17,16,32,1.90
2020,11,17,16,33,2.30
2020,11,17,16,34,1.60
2020,11,17,16,35,0.30
2020,11,17,16,36,0.00
2020,11,17,16,37,0.00
2020,11,17,16,38,0.00
2020,11,17,16,39,0.00
2020,11,17,16,40,0.00
2020,11,17,16,41,0.00
2020,11,17,16,42,0.00
2020,11,17,16,43,0.00
2020,11,17,16,44,0.00
2020,11,17,16,45,0.00
2020,11,17,16,46,0.80
2020,11,17,16,47,2.60
2020,11,17,16,48,1.50
2020,11,17,16,49,0.90
2020,11,17,16,50,0.10
2020,11,17,16,51,0.50
2020,11,17,16,52,0.50
2020,11,17,16,53,0.70
2020,11,17,16,54,2.70
2020,11,17,16,55,1.10
2020,11,17,16,56,0.10
2020,11,17,16,57,0.00
2020,11,17,16,58,0.00
2020,11,17,16,59,0.00
2020,11,17,17,00,0.00
2020,11,17,17,01,0.00
2020,11,17,17,02,0.00
2020,11,17,17,03,0.00
2020,11,17,17,04,0.00
2020,11,17,17,05,0.00
2020,11,17,17,06,0.00
2020,11,17,17,07,0.00
2020,11,17,17,08,0.00
2020,11,17,17,09,0.00
2020,11,17,17,10,0.00
2020,11,17,17,11,0.00
2020,11,17,17,12,0.00
2020,11,17,17,13,0.00
2020,11,17,17,14,0.10
2020,11,17,17,15,0.00
2020,11,17,17,16,0.00
2020,11,17,17,17,0.00
2020,11,17,17,18,0.00
2020,11,17,17,19,0.00
2020,11,17,17,20,0.00
2020,11,17,17,21,0.00
2020,11,17,17,22,0.00
2020,11,17,17,23,0.00
2020,11,17,17,24,0.00
2020,11,17,17,25,0.00
2020,11,17,17,26,0.00
2020,11,17,17,27,0.00
2020,11,17,17,28,0.40
2020,11,17,17,29,0.60
2020,11,17,17,30,1.30
2020,11,17,17,31,0.00
2020,11,17,17,32,0.00
2020,11,17,17,33,0.00
2020,11,17,17,34,0.00
2020,11,17,17,35,0.00
2020,11,17,17,36,1.50
2020,11,17,17,37,0.50
2020,11,17,17,38,0.00
2020,11,17,17,39,0.00
2020,11,17,17,40,0.00
2020,11,17,17,41,0.00
2020,11,17,17,42,0.00
2020,11,17,17,43,0.00
2020,11,17,17,44,0.00
2020,11,17,17,45,0.00
2020,11,17,17,46,0.00
2020,11,17,17,47,0.10
2020,11,17,17,48,0.10
2020,11,17,17,49,0.00
2020,11,17,17,50,0.00
2020,11,17,17,51,0.00
2020,11,17,17,52,0.00
2020,11,17,17,53,0.00
2020,11,17,17,54,0.00
2020,11,17,17,55,0.00
2020,11,17,17,56,0.00
2020,11,17,17,57,0.00
2020,11,17,17,58,0.00
2020,11,17,17,59,0.00
2020,11,17,18,00,0.00
2020,11,17,18,01,0.00
2020,11,17,18,02,0.00